Theta_e
318 316 317 320 318 314 316 318 317 319 320 319 320 322 328 336 342 341 335 331 324 321 322 323 320 324 323 323 323 324 325 327 328 328 328 329 330 330 330 330 329 327 324 320 319 319 316 315 315
316 320 318 315 317 317 315 316 321 319 319 319 319 323 336 341 339 340 337 328 322 319 320 320 318 320 322 320 320 321 323 324 326 326 327 327 326 325 325 325 324 322 320 318 317 316 316 317 317
322 324 316 319 317 318 317 318 319 319 320 320 321 326 335 340 339 339 339 330 323 319 319 319 318 320 322 318 319 319 320 321 322 323 325 326 324 323 322 321 320 319 318 317 315 316 319 319 319
321 324 318 321 320 318 319 318 318 318 319 317 319 322 333 337 339 339 337 332 323 321 318 318 318 319 321 318 318 318 319 319 320 320 321 323 323 323 321 320 318 317 317 316 316 319 320 320 321
322 315 321 316 318 317 318 318 318 317 317 317 318 320 326 335 338 340 337 327 321 321 319 318 317 318 320 317 317 317 318 318 318 319 319 319 319 320 321 318 317 316 315 316 318 322 322 322 322
323 314 316 320 318 318 318 318 318 318 317 318 318 318 329 335 338 339 333 324 322 320 320 318 317 317 318 317 317 317 317 318 317 317 318 318 318 318 320 318 316 316 315 316 318 323 324 324 325
326 317 318 317 319 323 322 321 321 319 319 322 318 321 333 335 342 338 333 330 329 325 321 318 317 317 317 317 316 316 317 317 317 317 316 317 317 317 318 317 316 315 314 316 319 323 324 326 326
326 324 328 325 322 325 324 323 321 322 324 322 320 322 328 332 343 335 332 331 331 330 325 319 317 317 317 317 316 316 316 316 316 316 316 316 316 316 317 316 315 314 314 315 318 322 323 326 327
318 325 329 328 327 325 324 325 323 325 325 325 320 324 324 337 343 337 334 334 333 333 328 321 318 317 317 317 316 315 316 316 316 316 315 315 315 315 315 315 314 314 314 315 317 321 323 325 327
318 319 326 326 325 326 325 325 326 327 326 325 325 323 324 331 336 333 337 338 338 336 329 322 319 317 317 317 316 315 315 316 317 316 315 315 314 314 314 314 314 314 314 315 317 319 322 326 325
318 319 322 324 323 324 324 324 324 325 325 326 325 323 322 323 324 327 332 339 337 335 334 327 322 319 319 318 317 316 316 315 316 317 316 316 315 315 315 315 315 315 315 316 320 321 324 324 324
314 316 319 321 321 322 322 323 325 324 324 325 325 324 323 323 323 324 326 330 339 340 332 332 326 323 321 320 318 317 316 316 316 316 317 318 316 316 317 316 317 316 317 317 320 321 322 322 322
311 312 312 312 312 316 319 320 322 321 320 323 324 325 324 323 323 323 328 330 335 342 341 333 329 325 325 324 321 320 319 318 317 317 318 318 317 317 317 318 319 318 319 320 320 322 323 323 323
308 309 310 310 311 311 313 314 315 317 317 318 321 323 323 323 323 324 326 328 333 339 344 344 341 334 327 325 325 323 321 320 319 319 319 319 319 318 318 319 320 320 320 321 323 324 326 327 328
309 308 308 310 311 312 313 313 314 315 316 316 317 317 319 322 324 323 325 327 327 327 334 343 341 341 337 331 328 328 326 322 321 320 320 321 323 324 325 325 325 327 327 326 327 329 330 331 331
308 305 306 308 309 310 312 314 314 312 313 314 315 315 315 317 321 324 325 324 325 326 327 330 341 344 341 339 338 335 332 327 322 322 328 332 334 335 336 335 335 336 334 332 330 331 332 332 333
305 306 308 308 308 308 310 309 309 310 311 311 311 311 312 312 313 315 316 320 324 326 327 328 332 343 344 342 340 337 334 331 331 333 336 337 338 340 341 341 341 340 338 335 333 332 333 333 334
309 308 308 309 310 309 309 310 310 310 310 311 310 310 310 311 312 313 314 315 319 323 325 327 328 335 341 343 342 340 338 338 338 338 338 339 341 342 343 343 342 341 339 337 335 334 334 334 336
309 310 309 309 309 309 308 309 309 309 309 309 309 309 309 310 311 311 312 314 315 318 323 325 327 328 338 342 341 341 341 340 340 340 339 340 343 345 344 344 344 342 341 341 338 336 335 337 338
309 310 310 310 312 312 310 311 309 309 309 309 309 309 308 308 309 309 311 312 313 315 318 322 326 328 333 343 342 342 342 342 341 342 343 343 341 342 344 345 345 344 342 341 339 338 337 337 336
310 313 314 313 313 311 310 312 311 309 309 309 308 308 307 307 307 307 309 310 311 314 315 318 323 327 329 337 343 343 343 343 344 343 340 338 343 344 342 342 345 345 344 343 342 340 339 336 336
312 313 312 312 312 311 311 311 310 309 308 308 307 306 304 305 309 312 313 310 311 312 312 314 318 326 330 338 344 344 342 343 343 342 339 341 337 337 339 341 345 345 345 344 344 343 341 339 337
310 312 311 312 312 311 310 308 309 309 310 308 306 312 312 313 313 313 313 313 314 315 313 313 316 325 329 342 344 344 342 342 341 340 337 337 338 339 342 344 346 346 346 345 344 344 342 338 336
311 311 308 309 307 310 309 309 308 307 308 308 314 315 314 313 312 312 312 313 314 315 316 315 316 322 329 338 345 343 341 340 337 336 336 336 339 341 345 346 346 347 347 346 345 345 341 339 338
307 306 308 309 311 312 309 311 309 308 312 314 316 314 313 312 310 310 311 311 314 316 317 316 316 324 330 334 340 342 341 340 337 334 333 339 343 346 347 347 348 347 346 346 345 343 341 339 337
308 307 308 312 313 309 309 312 309 309 314 314 315 313 313 311 310 310 311 312 315 316 316 316 317 321 329 334 335 339 339 337 334 332 333 337 338 343 347 348 347 347 346 345 344 343 341 339 338
308 308 306 310 309 310 309 309 308 309 314 314 313 312 312 312 312 312 313 314 316 316 314 314 319 318 328 333 334 336 337 335 332 331 334 336 338 343 347 347 347 346 346 344 344 342 339 339 339
310 309 310 306 313 314 311 310 311 310 311 314 312 312 313 313 311 311 312 313 316 314 314 314 323 318 325 331 333 334 335 334 332 333 336 338 342 346 347 347 347 345 344 344 341 341 339 338 337
308 310 311 307 308 308 313 311 309 312 312 313 312 313 312 311 312 313 314 315 315 315 315 315 322 320 325 329 330 332 333 334 334 335 336 339 343 347 347 347 346 344 344 342 341 339 338 337 335
308 310 310 308 310 312 312 313 309 312 312 312 312 313 312 312 313 314 315 316 316 317 318 318 325 325 324 328 329 331 332 335 336 338 338 342 346 347 347 346 344 344 343 341 340 339 337 335 334
Wind_Speed
11 4 1 3 2 5 3 6 3 8 6 4 10 5 13 17 14 6 5 39 37 45 44 40 37 35 34 33 31 29 27 26 25 23 21 20 18 16 15 14 12 11 9 8 7 6 5 5 5
8 2 2 2 3 2 5 4 7 5 7 11 12 8 1 8 5 2 16 38 45 50 47 44 39 37 35 33 32 30 28 26 24 22 21 19 18 17 15 14 12 10 9 8 7 6 6 5 5
4 0 3 3 3 5 5 4 3 7 8 7 6 8 3 5 4 13 8 40 45 51 48 44 41 38 36 34 33 31 29 26 23 22 20 19 17 16 15 14 12 10 9 8 8 8 6 5 4
3 3 4 3 10 4 4 5 5 11 11 5 4 9 5 7 12 24 30 43 50 50 48 44 41 39 37 34 32 31 28 26 23 21 20 19 17 15 15 13 12 10 10 9 8 9 8 7 5
3 2 2 3 6 4 3 3 5 8 6 10 6 8 4 5 6 29 44 48 53 51 49 46 42 40 38 34 32 30 28 26 24 22 20 19 17 16 15 13 12 11 10 9 9 9 8 7 6
1 1 3 6 8 2 3 3 2 4 7 13 9 8 4 7 13 32 49 52 52 52 48 46 42 39 38 35 32 30 29 27 25 23 21 20 18 17 16 14 13 12 11 10 9 10 9 7 7
3 1 4 4 4 4 1 2 4 4 7 8 7 7 7 7 3 14 21 33 42 45 47 44 42 39 37 35 32 30 28 27 26 24 22 21 19 18 17 16 14 13 13 13 12 11 10 9 9
3 2 3 5 4 4 4 4 3 4 6 10 3 6 8 4 13 18 20 29 34 37 41 43 42 40 38 35 32 30 28 27 26 24 23 22 20 19 19 18 16 16 15 15 15 14 12 11 10
4 2 4 4 3 3 5 3 3 5 4 7 6 5 7 12 18 16 17 20 27 32 38 41 42 40 38 35 33 30 29 28 26 24 24 22 23 22 21 20 18 19 18 18 18 16 14 13 12
4 4 7 3 2 4 8 5 10 9 17 10 13 9 15 14 14 9 8 4 20 28 37 42 41 41 38 36 34 33 31 30 29 29 27 26 24 23 22 21 20 21 20 20 20 18 17 15 15
5 6 4 3 3 4 10 15 7 11 17 3 10 10 10 4 7 6 8 13 18 26 32 42 43 41 40 39 37 35 33 32 31 30 29 27 25 24 24 24 23 23 22 22 22 21 20 19 18
4 4 3 1 5 5 8 11 16 16 20 9 8 8 7 8 4 1 6 12 28 24 38 39 40 42 43 42 40 39 37 35 34 33 31 29 27 27 27 27 25 25 24 24 25 23 21 20 20
4 4 4 6 7 7 11 15 13 28 17 9 12 10 8 9 8 1 5 11 19 29 29 41 43 44 45 44 42 42 41 39 37 35 33 32 30 29 28 28 26 25 25 25 26 24 23 21 21
2 3 6 3 5 5 7 11 6 22 8 11 6 9 8 9 9 4 5 5 6 20 24 25 35 43 44 45 43 44 43 40 38 36 35 33 32 30 28 28 27 25 25 25 26 25 22 21 20
3 6 5 4 4 7 7 11 17 16 7 11 10 12 11 9 12 11 8 9 10 11 17 33 39 38 41 44 43 40 42 40 37 37 35 33 31 29 28 28 26 24 24 25 24 24 22 19 19
4 4 3 4 4 6 7 19 8 8 9 10 9 11 12 10 9 16 22 15 15 16 17 21 32 42 43 43 41 37 38 37 37 35 32 32 29 28 27 27 25 23 24 24 24 24 24 19 20
6 1 2 7 5 4 4 6 7 9 6 8 7 8 11 15 16 15 25 24 18 20 20 19 25 34 45 45 41 38 38 35 33 34 32 31 28 26 27 26 25 23 24 25 24 24 24 21 21
3 1 3 4 6 5 10 11 6 6 5 7 8 8 9 11 11 20 29 33 28 24 25 23 22 30 35 39 42 40 37 35 35 33 32 29 27 25 26 24 25 24 24 26 24 24 21 21 21
2 3 6 5 6 5 9 18 10 6 4 6 7 8 9 9 10 20 22 27 32 26 23 26 25 26 33 30 29 30 36 39 36 37 34 29 26 26 25 25 25 26 25 26 27 23 22 19 19
4 3 2 3 4 7 8 22 13 5 6 5 6 7 8 9 10 14 24 25 30 34 32 29 26 26 30 36 32 29 34 37 41 39 33 29 28 27 27 27 27 27 25 25 25 24 18 17 16
2 2 3 4 5 5 7 19 6 3 4 5 3 6 8 8 11 13 16 23 29 31 37 34 32 35 33 38 32 27 22 22 24 29 30 30 27 28 29 28 28 27 25 26 24 24 22 13 17
3 1 2 5 7 3 4 11 17 5 6 3 9 8 8 8 7 9 13 17 22 30 34 36 35 34 37 36 33 34 32 26 33 36 35 27 27 25 28 27 27 26 25 23 23 23 22 19 14
5 2 3 3 5 3 4 4 3 12 13 8 7 5 7 8 10 12 12 20 29 29 31 35 35 31 40 39 42 39 31 31 27 25 26 25 21 23 25 25 26 24 23 23 23 22 22 21 17
2 2 4 3 1 2 9 7 6 2 1 3 4 7 9 8 9 13 18 21 23 30 30 31 33 33 36 41 44 40 35 36 26 24 24 21 18 19 24 25 25 21 22 21 21 22 20 19 17
6 6 4 4 3 4 3 4 9 12 6 6 6 8 10 12 10 11 13 16 24 25 31 30 28 33 37 42 42 43 43 40 40 32 25 20 19 22 25 25 24 21 22 18 20 22 20 19 16
4 7 4 5 3 9 6 6 6 5 5 4 4 8 10 12 16 15 15 13 22 23 32 30 31 33 31 38 39 45 43 43 40 32 27 25 25 25 25 27 24 21 20 20 17 19 18 17 15
3 3 5 3 2 2 5 10 8 9 5 4 8 9 10 12 15 20 19 21 24 23 31 33 34 33 31 36 41 41 45 41 38 33 27 26 26 26 29 28 23 21 21 20 20 19 17 16 15
2 2 1 2 3 5 5 6 9 12 9 6 8 10 13 13 16 17 18 18 28 26 30 33 31 33 35 39 37 39 45 46 39 30 28 29 28 27 30 27 25 23 22 21 20 20 18 16 14
2 1 3 2 3 4 4 7 6 6 8 7 10 10 10 13 17 16 18 24 25 26 26 30 30 27 30 34 39 38 35 32 30 30 28 32 30 31 31 30 28 25 25 23 22 19 17 15 14
6 6 5 4 5 4 3 15 7 5 8 6 10 11 9 12 17 16 16 17 19 22 31 31 27 22 29 38 37 37 33 30 27 26 30 33 31 31 33 32 28 28 26 25 22 19 17 16 15
Wind_Direction
312 323 309 56 52 70 257 256 269 313 324 269 288 230 232 200 165 207 171 162 171 169 170 168 169 171 170 164 160 158 156 156 154 153 154 154 154 154 156 157 158 158 159 156 153 153 144 133 121
316 86 67 88 109 139 261 245 244 265 271 294 296 316 248 196 148 129 128 166 171 168 170 170 171 173 174 168 164 163 162 161 159 159 161 161 160 160 162 165 166 166 167 165 159 161 154 142 127
340 96 90 136 169 196 219 227 346 288 284 289 297 243 256 240 112 160 201 164 172 169 171 172 173 177 176 173 171 169 167 168 166 168 169 170 169 169 170 173 174 175 176 176 171 171 166 164 144
55 358 40 113 239 260 207 312 320 328 327 275 281 300 313 248 158 175 166 167 173 172 173 173 176 180 179 179 178 174 172 173 174 177 179 178 179 180 182 183 185 186 188 187 185 186 178 179 165
77 19 76 279 253 244 221 259 296 301 277 292 331 300 259 353 167 165 167 171 175 174 175 176 179 183 183 185 185 181 179 179 182 184 187 189 190 192 193 194 199 198 201 197 200 200 196 193 190
341 135 100 242 243 308 291 233 299 294 295 303 332 326 282 340 171 170 169 174 179 175 177 177 182 186 187 190 190 189 186 185 188 191 194 197 198 202 203 206 210 211 212 213 213 213 212 209 212
167 148 212 251 271 321 322 322 280 307 312 317 298 316 307 3 140 165 161 168 177 177 177 179 183 189 192 194 196 196 195 193 194 197 201 204 205 207 212 215 218 222 222 222 224 221 225 228 228
145 120 231 229 267 287 271 355 300 351 301 328 339 11 320 312 133 152 167 170 175 178 179 180 186 190 195 198 203 202 203 203 201 202 206 209 213 214 217 220 222 227 230 231 231 228 230 236 242
110 168 228 230 140 231 319 357 182 317 319 324 342 5 314 80 115 131 146 161 180 182 183 185 189 193 197 200 204 208 209 211 212 211 213 214 216 218 221 225 226 230 232 238 238 233 236 240 244
157 179 220 225 101 322 293 308 325 338 317 317 320 328 8 77 101 78 342 222 181 188 189 192 194 197 199 202 206 209 211 215 215 216 216 216 220 223 226 230 231 236 234 239 242 240 240 240 247
195 203 208 288 347 316 302 301 310 295 284 290 290 312 330 16 62 115 207 234 242 205 196 197 198 200 202 205 207 211 212 218 221 222 223 222 222 225 229 231 232 235 236 238 241 240 239 241 249
251 246 228 255 285 291 273 303 299 275 267 280 279 289 290 314 309 239 313 258 224 233 207 205 205 205 206 208 210 213 214 217 223 225 226 226 224 226 230 233 234 238 239 240 242 244 245 247 253
201 274 306 338 311 283 284 278 265 279 286 279 279 275 254 278 278 207 317 339 238 226 228 212 208 210 211 212 214 216 217 219 223 227 228 229 229 229 234 237 238 240 244 243 245 245 247 250 255
327 287 290 272 246 232 246 269 260 267 327 301 293 282 261 236 257 230 186 305 222 232 239 232 224 215 214 216 220 222 221 223 225 230 233 232 234 236 237 241 239 241 245 246 245 246 247 250 256
319 337 341 215 233 233 212 259 247 277 299 288 301 287 292 249 249 241 221 204 265 276 250 233 231 229 221 221 224 226 229 224 228 232 236 237 235 238 240 242 243 244 246 244 243 244 246 248 256
14 43 16 278 262 255 174 253 284 2 347 329 338 334 346 340 288 277 279 245 253 261 266 269 239 230 226 225 228 231 234 231 230 233 236 238 237 239 239 241 244 245 245 243 238 240 241 245 254
14 193 259 309 321 281 194 311 328 328 350 319 332 327 328 327 332 339 330 324 277 251 244 253 253 235 232 226 229 231 233 231 229 234 238 242 241 242 241 241 246 244 243 242 237 238 238 242 251
248 250 249 261 299 317 296 274 269 288 298 301 313 317 319 319 325 322 328 329 322 294 262 246 247 243 239 232 222 225 229 231 232 235 237 240 245 245 243 245 248 244 236 239 235 235 238 239 249
237 239 247 269 285 312 289 294 300 276 248 280 299 310 313 310 304 315 321 325 324 323 282 256 240 241 233 220 212 213 220 229 232 233 234 234 241 247 247 248 247 243 233 236 236 234 234 235 241
185 208 251 272 320 327 305 292 293 270 254 231 280 300 298 304 309 312 312 316 317 316 314 293 267 248 237 226 224 212 216 225 229 231 227 237 238 243 250 248 248 243 235 229 230 231 224 228 220
341 112 333 271 302 266 307 290 258 264 276 288 270 264 283 277 301 317 320 317 315 312 313 310 286 260 241 233 220 227 215 221 230 233 228 228 236 242 247 246 246 242 237 229 225 227 220 193 203
339 76 324 330 350 306 53 290 290 267 272 297 289 308 323 335 332 326 322 318 316 307 305 303 296 267 244 235 212 217 213 213 225 225 225 227 233 239 241 239 238 238 234 226 220 220 218 212 180
241 312 289 276 263 278 206 257 283 332 304 284 335 338 327 313 305 305 300 299 303 304 302 300 292 268 249 230 218 214 214 216 220 215 216 219 229 234 231 229 230 229 229 220 220 220 218 213 197
347 337 352 358 44 281 211 200 314 208 305 269 282 305 294 279 284 294 297 296 299 307 302 298 290 279 256 233 222 213 210 213 209 210 213 219 221 220 219 220 222 219 213 211 216 225 214 208 214
62 50 339 338 357 242 303 313 266 288 249 196 253 287 298 298 291 286 296 302 305 306 305 301 286 268 252 232 221 214 214 212 222 219 219 209 208 209 209 207 200 202 210 215 217 210 206 205 211
251 161 161 258 223 280 307 249 250 252 244 261 250 264 284 300 309 306 300 294 291 305 303 299 289 262 249 232 220 218 215 216 223 222 219 218 218 215 205 199 196 196 204 204 207 201 201 201 207
264 200 213 219 312 278 227 270 289 258 242 293 321 327 313 308 309 310 309 306 294 298 303 293 287 258 241 228 219 212 215 218 221 222 218 219 220 215 201 197 194 194 201 202 199 200 199 199 206
163 211 313 14 266 248 258 259 250 273 288 298 302 303 305 306 310 310 307 300 287 289 300 299 291 249 237 224 217 212 213 216 219 219 213 215 215 208 199 193 193 189 189 189 192 194 188 193 206
353 276 82 131 172 216 291 257 217 249 269 267 278 291 290 303 314 308 305 296 281 296 302 311 306 254 234 226 222 218 215 218 218 218 215 214 208 204 194 190 189 183 181 183 182 184 190 199 201
172 206 151 133 266 235 238 270 271 269 255 262 264 275 282 301 315 313 315 314 290 312 324 310 303 261 232 225 219 218 217 214 211 212 213 209 201 200 191 188 185 179 181 180 181 186 195 194 197